Orbital Elements at Epoch 2459200.5 (2020-Dec-17.0) TDB
Reference: JPL 22 (heliocentric ecliptic J2000)
Element | Value | Uncertainty (1-sigma) | Units |
e | .1706351196703428 | 5.2937e-08 | |
a | 2.449600111572589 | 2.1555e-08 | au |
q | 2.031612303389915 | 1.2095e-07 | au |
i | 4.514047696703596 | 6.3259e-06 | deg |
node | 334.250200194765 | 5.4879e-05 | deg |
peri | 314.7750155940167 | 6.1531e-05 | deg |
M | 186.1889656347267 | 3.3393e-05 | deg |
tp | 2459876.607976932254 (2022-Oct-24.10797693) | 0.00013676 | TDB |
period | 1400.364899642076 3.83 | 1.8483e-05 5.06e-08 | d yr |
n | .257075852223955 | 3.3931e-09 | deg/d |
Q | 2.867587919755263 | 2.5233e-08 | au |
|
| | Orbit Determination Parameters
Additional Information
|